Namest Nad Oslav, Czech Republic

12:41 AM CEST on October 23, 2019 (GMT +0200)
Namest

Weather History for LKNA - August, 2019

Change the Weather History Date:

Thursday, August 29, 2019

  Actual Average Record
Temperature  
Mean Temperature 74 °F -  
Max Temperature 84 °F - - ()
Min Temperature 65 °F - - ()
Cooling Degree Days 10    
Growing Degree Days 24 (Base 50)    
Moisture  
Dew Point 61 °F    
Average Humidity 63    
Maximum Humidity 88    
Minimum Humidity 33    
Precipitation  
Precipitation 0.00 in - - ()
Sea Level Pressure  
Sea Level Pressure 30.07 in    
Wind  
Wind Speed 6 mph ()    
Max Wind Speed 18 mph    
Max Gust Speed -    
Visibility 10.1 miles    
Events Rain , Thunderstorm    
T = Trace of Precipitation, MM = Missing Value Source: Averaged Metar Reports

Daily Weather History Graph

Daily Weather History Graph

Search for Another Location

Airport or City:

Astronomy

Aug. 29, 2019 Rise Set
Actual Time 6:06 AM CEST 7:45 PM CEST
Civil Twilight 5:33 AM CEST 8:18 PM CEST
Nautical Twilight 4:52 AM CEST 8:59 PM CEST
Astronomical Twilight 4:07 AM CEST 9:43 PM CEST
Moon 4:16 AM CEST (8/29) 7:38 PM CEST (8/29)
Length of Visible Light 14h 45m
Length of Day
13h 38m
Waning Crescent, 2% of the Moon is Illuminated
Aug 29
Waning Crescent
Aug 30
New
Sep 6
First Quarter
Sep 14
Full
Sep 22
Last Quarter

Hourly Weather History & Observations

Time (CEST) Temp. Heat Index Dew Point Humidity Pressure Visibility Wind Dir Wind Speed Gust Speed Precip Events Conditions
12:00 AM 72 °F - 63 °F 67% 30.02 in 9 mi ESE 6.7 mph - -  
12:00 AM 73.4 °F - 64.4 °F 73% 30.06 in - ESE 6.9 mph - N/A   Clear
1:00 AM 72 °F - 63 °F 67% 30.01 in 9 mi ENE 4.5 mph - -  
1:00 AM 69.8 °F - 64.4 °F 83% 30.06 in - NE 4.6 mph - N/A   Clear
2:00 AM 69 °F - 64 °F 77% 30.02 in 9 mi North 4.5 mph - -  
2:00 AM 69.8 °F - 64.4 °F 83% 30.06 in - North 5.8 mph - N/A   Clear
3:00 AM 68.0 °F - 64.4 °F 88% 30.06 in - North 5.8 mph - N/A   Clear
4:00 AM 67 °F - 63 °F 82% 30.02 in 6 mi NE 4.5 mph - -  
4:00 AM 68.0 °F - 62.6 °F 83% 30.06 in - NE 4.6 mph - N/A   Clear
5:00 AM 67 °F - 63 °F 81% 30.02 in 6 mi NE 6.7 mph - -  
5:00 AM 66.2 °F - 62.6 °F 88% 30.06 in - NE 5.8 mph - N/A   Clear
6:00 AM 67 °F - 62 °F 78% 30.04 in 6 mi ENE 4.5 mph - -  
6:00 AM 66.2 °F - 62.6 °F 88% 30.06 in - ENE 4.6 mph - N/A   Clear
7:00 AM 67 °F - 62 °F 78% 30.04 in 6 mi NE 4.5 mph - -  
7:00 AM 66.2 °F - 62.6 °F 88% 30.06 in - ENE 4.6 mph - N/A   Clear
8:00 AM 70 °F - 62 °F 69% 30.05 in 9 mi NNE 2.2 mph - -   Clear
8:00 AM 68.0 °F - 62.6 °F 83% 30.09 in - NE 3.5 mph - N/A   Clear
9:00 AM 72 °F - 61 °F 60% 30.04 in 12 mi East 4.5 mph - -   Clear
9:00 AM 73.4 °F - 62.6 °F 69% 30.09 in - East 4.6 mph - N/A   Clear
10:00 AM 75 °F - 63 °F 58% 30.03 in 12 mi ESE 6.7 mph - -   Clear
10:00 AM 75.2 °F - 64.4 °F 69% 30.09 in - ESE 5.8 mph - N/A   Clear
11:00 AM 77.0 °F - 64.4 °F 65% 30.09 in - SE 8.1 mph - N/A   Clear
12:00 PM 78.8 °F - 62.6 °F 57% 30.09 in - East 6.9 mph - N/A   Clear
1:00 PM 82 °F - 62 °F 40% 30.02 in 12 mi ESE 2.2 mph - -   Clear
1:00 PM 82.4 °F 83.4 °F 62.6 °F 51% 30.09 in - SE 6.9 mph - N/A   Clear
2:00 PM 84 °F - 60 °F 34% 30.01 in 16 mi East 6.7 mph - -   Partly Cloudy
2:00 PM 84.2 °F 83.8 °F 59.0 °F 42% 30.09 in 6.2 mi ESE 6.9 mph - N/A   Scattered Clouds
3:00 PM 83 °F - 59 °F 33% 30.00 in 16 mi East 6.7 mph - -   Mostly Cloudy
4:00 PM 82 °F - 59 °F 36% 30.01 in 12 mi East 2.2 mph - -   Mostly Cloudy
4:00 PM 82.4 °F 82.5 °F 59.0 °F 45% 30.09 in 6.2 mi Variable 2.3 mph - N/A   Mostly Cloudy
5:00 PM 82 °F - 60 °F 36% 30.02 in 12 mi ENE 2.2 mph - -   Mostly Cloudy
5:00 PM 82.4 °F 82.9 °F 60.8 °F 48% 30.09 in 6.2 mi ENE 2.3 mph - N/A   Mostly Cloudy
6:00 PM 78 °F - 60 °F 44% 30.03 in 9 mi West 8.9 mph - - Thunderstorm Light Thunderstorm
6:00 PM 78.8 °F - 60.8 °F 54% 30.09 in 6.2 mi West 5.8 mph - N/A   Mostly Cloudy
7:00 PM 77.0 °F - 59.0 °F 54% 30.09 in 6.2 mi West 8.1 mph - N/A   Mostly Cloudy
8:00 PM 71 °F - 58 °F 53% 30.09 in 12 mi NW 15.7 mph - - Rain Light Rain Showers
8:00 PM 71.6 °F - 59.0 °F 64% 30.12 in 6.2 mi NW 18.4 mph - N/A Rain Light Rain Showers
9:00 PM 70 °F - 58 °F 56% 30.10 in 19 mi NW 11.2 mph - - Rain Light Rain Showers
10:00 PM 71 °F - 58 °F 55% 30.11 in 19 mi NNW 11.2 mph - -   Mostly Cloudy
10:00 PM 71.6 °F - 59.0 °F 64% 30.15 in - NNW 9.2 mph - N/A   Clear
11:00 PM 70 °F - 57 °F 54% 30.12 in 19 mi NNW 8.9 mph - -   Partly Cloudy
11:00 PM 71.6 °F - 57.2 °F 60% 30.15 in - NNW 9.2 mph - N/A   Clear
11:58 PM 69.8 °F - 57.2 °F 64% 30.18 in 4.3 mi WSW 11.5 mph - N/A Rain Light Rain